Location: Andiroba
(19.8650°S, 43.9258°W)
Time: 00:09:42
(UTC+00:00)

DMSP B5D2-2 - Pass Details

Date: 15 June 2024
Orbit: 786 x 804 km, 98.3° (Epoch: 24 July)

Event Time Altitude Azimuth Distance (km) Brightness Sun altitude
Rises 07:23:22 0° 168° (SSE) 3,313 7.2 -28.4°
Enters shadow 07:23:47 - 168° (SSE) 3,146 7.1 -28.3°
Exits shadow 07:29:24 47° 168° (SSE) 1,053 4.6 -27.0°
Maximum altitude 07:30:59 89° 248° (WSW) 806 3.9 -26.7°
Drops below altitude 10° 07:36:14 10° 347° (NNW) 2,367 6.6 -25.5°
Sets 07:38:33 0° 347° (NNW) 3,293 7.3 -25.0°
